Flag for Norway Weather past 2 weeks in Mo i Rana, Norway

Now
41 °F

Scattered clouds.


Feels Like: 32 °F
Forecast: 27 / 35 °F
Wind: 21 mph from Southeast

Location: Mo I Rana / Rossvoll

Current Time: Oct 20, 2014 at 2:07:55 PM

Latest Report: Oct 20, 2014 at 1:20 PM


Visibility: N/A

Pressure: 29.53 "Hg

Humidity: 53%

Dew point: 25 °F

Location of Mo i RanaLocation

Historic Weather in Mo i Rana — Graph

°F

Mo i Rana temperature yesterday

Maximum temperature yesterday: 39 °F (at 10:20 AM)
Minimum temperature yesterday: 37 °F (at 8:50 PM)
Average temperature yesterday: 39 °F

Past Weeks' High & Low Weather Summary

 TemperatureHumidityPressure
High63 °F (Oct 5, 12:20 PM)100% (Oct 14, 6:50 AM)30.51 "Hg (Oct 14, 6:50 AM)
Low21 °F (Oct 15, 5:50 AM)44% (Oct 6, 1:50 PM)29.45 "Hg (Oct 20, 6:50 AM)
Average39 °F66%30.01 "Hg
* Reported Oct 5 12:20 PM — Oct 20 12:50 PM, Mo i Rana, Weather by CustomWeather, © 2014

Note: Actual official high and low records may vary slightly from our data, if they occured in-between our weather recording intervals... More about our weather records

Advertising

Mo i Rana weather history for previous 24 hours

 ConditionsComfort  
Time TempWeatherWind HumidityBarometerVisibility
12:50 PM
Oct 20
41 °FScattered clouds.10 mph53%29.50 "HgN/A
12:20 PM41 °FScattered clouds.9 mph49%29.50 "HgN/A
11:50 AM39 °FPartly sunny.10 mph56%29.50 "HgN/A
10:50 AM39 °FPartly sunny.13 mph52%29.50 "HgN/A
10:20 AM39 °FPartly sunny.12 mph52%29.50 "HgN/A
9:50 AM37 °FPartly sunny.14 mph56%29.47 "HgN/A
8:50 AM37 °FPassing clouds.15 mph56%29.47 "HgN/A
8:20 AM37 °FPassing clouds.15 mph56%29.47 "HgN/A
7:50 AM39 °FPartly cloudy.15 mph52%29.47 "HgN/A
7:20 AM39 °FPassing clouds.16 mph52%29.45 "HgN/A
6:50 AM39 °FPassing clouds.12 mph52%29.45 "HgN/A
9:50 PM
Oct 19
37 °FPassing clouds.16 mph65%29.50 "HgN/A
8:50 PM37 °FPassing clouds.16 mph65%29.50 "HgN/A
7:50 PM39 °FPassing clouds.12 mph61%29.50 "HgN/A
6:50 PM39 °FPassing clouds.12 mph61%29.50 "HgN/A
6:20 PM39 °FPartly sunny.12 mph61%29.50 "HgN/A
5:50 PM39 °FScattered showers. Partly sunny.12 mph61%29.50 "HgN/A
4:50 PM39 °FScattered showers. Partly sunny.9 mph61%29.50 "HgN/A
4:20 PM39 °FScattered showers. Partly sunny.9 mph61%29.50 "HgN/A
3:50 PM39 °FScattered showers. Partly sunny.8 mph61%29.53 "HgN/A
2:50 PM39 °FScattered showers. Partly sunny.12 mph61%29.53 "HgN/A
2:20 PM39 °FScattered showers. Partly sunny.15 mph56%29.53 "HgN/A
Weather by CustomWeather, © 2014

See weather overviewHow to use our weather pages